| time (UTC) | temp F | wind direction | speed MPH | gust MPH | rain 1hr in | rain 24hr in | rain mn in | humidity % | barometer mb |
| 20260902221939 | 103 | 351 | 8.0 | 12.0 | 0.00 | 0.00 | 0.00 | 16 | 1008.4 |
| 20260902220914 | 103 | 351 | 5.0 | 11.0 | 0.00 | 0.00 | 0.00 | 16 | 1008.4 |
| 20260902215850 | 104 | 351 | 9.0 | 12.0 | 0.00 | 0.00 | 0.00 | 16 | 1008.4 |
| 20260902214826 | 104 | 351 | 7.0 | 12.0 | 0.00 | 0.00 | 0.00 | 16 | 1008.4 |
| 20260902213802 | 104 | 351 | 3.0 | 12.0 | 0.00 | 0.00 | 0.00 | 16 | 1008.4 |
| 20260902212738 | 104 | 351 | 7.0 | 10.0 | 0.00 | 0.00 | 0.00 | 16 | 1009.4 |
| 20260902211713 | 104 | 351 | 5.0 | 10.0 | 0.00 | 0.00 | 0.00 | 16 | 1009.4 |
| 20260902210646 | 103 | 351 | 7.0 | 8.0 | 0.00 | 0.00 | 0.00 | 16 | 1009.4 |
| 20260902205622 | 104 | 351 | 4.0 | 6.0 | 0.00 | 0.00 | 0.00 | 16 | 1009.4 |
| 20260902204558 | 104 | 351 | 6.0 | 12.0 | 0.00 | 0.00 | 0.00 | 16 | 1009.4 |
| 20260902203533 | 104 | 351 | 5.0 | 9.0 | 0.00 | 0.00 | 0.00 | 16 | 1009.4 |
| 20260902202509 | 105 | 351 | 7.0 | 12.0 | 0.00 | 0.00 | 0.00 | 16 | 1010.4 |
| 20260902201445 | 106 | 351 | 6.0 | 9.0 | 0.00 | 0.00 | 0.00 | 16 | 1010.4 |
| 20260902200420 | 105 | 351 | 10.0 | 14.0 | 0.00 | 0.00 | 0.00 | 16 | 1010.4 |
| 20260902195356 | 104 | 351 | 6.0 | 8.0 | 0.00 | 0.00 | 0.00 | 17 | 1010.4 |
| 20260902194332 | 104 | 351 | 5.0 | 10.0 | 0.00 | 0.00 | 0.00 | 17 | 1011.4 |
| 20260902193308 | 103 | 351 | 10.0 | 10.0 | 0.00 | 0.00 | 0.00 | 17 | 1011.4 |
| 20260902192244 | 102 | 351 | 10.0 | 15.0 | 0.00 | 0.00 | 0.00 | 18 | 1011.4 |
| 20260902191206 | 101 | 351 | 10.0 | 10.0 | 0.00 | 0.00 | 0.00 | 18 | 1011.4 |
| 20260902190142 | 101 | 351 | 10.0 | 11.0 | 0.00 | 0.00 | 0.00 | 19 | 1011.4 |
| 20260902185118 | 100 | 351 | 9.0 | 14.0 | 0.00 | 0.00 | 0.00 | 19 | 1011.4 |
| 20260902184054 | 100 | 351 | 10.0 | 13.0 | 0.00 | 0.00 | 0.00 | 20 | 1012.4 |
| 20260902183030 | 99 | 351 | 11.0 | 14.0 | 0.00 | 0.00 | 0.00 | 22 | 1012.4 |
| 20260902180942 | 99 | 351 | 8.0 | 12.0 | 0.00 | 0.00 | 0.00 | 26 | 1012.4 |
| 20260902175908 | 99 | 351 | 8.0 | 11.0 | 0.00 | 0.00 | 0.00 | 26 | 1012.4 |
| 20260902174844 | 98 | 351 | 8.0 | 11.0 | 0.00 | 0.00 | 0.00 | 26 | 1012.4 |
| 20260902173814 | 97 | 351 | 7.0 | 9.0 | 0.00 | 0.00 | 0.00 | 28 | 1013.4 |
| 20260902172751 | 96 | 351 | 7.0 | 7.0 | 0.00 | 0.00 | 0.00 | 30 | 1013.4 |
| 20260902171727 | 96 | 351 | 3.0 | 8.0 | 0.00 | 0.00 | 0.00 | 32 | 1013.4 |
| 20260902170630 | 95 | 351 | 7.0 | 10.0 | 0.00 | 0.00 | 0.00 | 32 | 1013.4 |
| 20260902165606 | 95 | 351 | 6.0 | 9.0 | 0.00 | 0.00 | 0.00 | 34 | 1013.4 |
| 20260902163500 | 93 | 351 | 5.0 | 6.0 | 0.00 | 0.00 | 0.00 | 37 | 1014.4 |
| 20260902162436 | 92 | 351 | 5.0 | 10.0 | 0.00 | 0.00 | 0.00 | 38 | 1014.4 |
| 20260902161404 | 91 | 351 | 4.0 | 7.0 | 0.00 | 0.00 | 0.00 | 39 | 1014.4 |
| 20260902160339 | 90 | 351 | 0.0 | 7.0 | 0.00 | 0.00 | 0.00 | 43 | 1014.4 |
| 20260902155315 | 89 | 351 | 7.0 | 9.0 | 0.00 | 0.00 | 0.00 | 44 | 1014.4 |
| 20260902154228 | 88 | 351 | 5.0 | 10.0 | 0.00 | 0.00 | 0.00 | 45 | 1014.4 |
| 20260902153204 | 88 | 351 | 7.0 | 9.0 | 0.00 | 0.00 | 0.00 | 46 | 1014.4 |
| 20260902152121 | 87 | 351 | 6.0 | 9.0 | 0.00 | 0.00 | 0.00 | 48 | 1015.4 |
| 20260902151058 | 86 | 351 | 6.0 | 10.0 | 0.00 | 0.00 | 0.00 | 50 | 1015.4 |
| 20260902150034 | 85 | 351 | 6.0 | 9.0 | 0.00 | 0.00 | 0.00 | 51 | 1015.4 |
| 20260902144943 | 85 | 351 | 4.0 | 9.0 | 0.00 | 0.00 | 0.00 | 54 | 1015.4 |
| 20260902143846 | 83 | 351 | 3.0 | 9.0 | 0.00 | 0.00 | 0.00 | 56 | 1015.4 |
| 20260902142818 | 82 | 351 | 6.0 | 8.0 | 0.00 | 0.00 | 0.00 | 59 | 1015.4 |
| 20260902141755 | 81 | 351 | 7.0 | 10.0 | 0.00 | 0.00 | 0.00 | 61 | 1015.4 |
| 20260902140722 | 80 | 351 | 8.0 | 10.0 | 0.00 | 0.00 | 0.00 | 62 | 1015.4 |
| 20260902135658 | 79 | 351 | 7.0 | 10.0 | 0.00 | 0.00 | 0.00 | 64 | 1016.4 |
| 20260902133612 | 78 | 351 | 8.0 | 11.0 | 0.00 | 0.00 | 0.00 | 65 | 1016.4 |
| 20260902132549 | 77 | 351 | 7.0 | 9.0 | 0.00 | 0.00 | 0.00 | 67 | 1016.4 |
| 20260902131526 | 76 | 347 | 8.0 | 9.0 | 0.00 | 0.00 | 0.00 | 68 | 1016.4 |
| 20260902130503 | 75 | 351 | 7.0 | 10.0 | 0.00 | 0.00 | 0.00 | 69 | 1016.4 |
| 20260902125440 | 74 | 351 | 8.0 | 10.0 | 0.00 | 0.00 | 0.00 | 70 | 1016.4 |
| 20260902124417 | 74 | 351 | 8.0 | 10.0 | 0.00 | 0.00 | 0.00 | 71 | 1016.4 |
| 20260902123354 | 73 | 351 | 8.0 | 10.0 | 0.00 | 0.00 | 0.00 | 70 | 1016.4 |
| 20260902122331 | 74 | 351 | 8.0 | 11.0 | 0.00 | 0.00 | 0.00 | 70 | 1015.4 |
| 20260902121308 | 74 | 351 | 9.0 | 10.0 | 0.00 | 0.00 | 0.00 | 69 | 1015.4 |
| 20260902120245 | 74 | 351 | 8.0 | 10.0 | 0.00 | 0.00 | 0.00 | 68 | 1015.4 |
| 20260902115222 | 74 | 347 | 8.0 | 10.0 | 0.00 | 0.00 | 0.00 | 67 | 1015.4 |
| 20260902114159 | 74 | 351 | 8.0 | 9.0 | 0.00 | 0.00 | 0.00 | 66 | 1015.4 |
| 20260902113136 | 74 | 347 | 9.0 | 10.0 | 0.00 | 0.00 | 0.00 | 65 | 1015.4 |
| 20260902112113 | 74 | 351 | 8.0 | 10.0 | 0.00 | 0.00 | 0.00 | 65 | 1015.4 |
| 20260902111050 | 75 | 351 | 8.0 | 9.0 | 0.00 | 0.00 | 0.00 | 64 | 1015.4 |
| 20260902110027 | 75 | 347 | 8.0 | 9.0 | 0.00 | 0.00 | 0.00 | 64 | 1015.4 |
| 20260902105458 | 75 | 351 | 7.0 | 8.0 | 0.00 | 0.00 | 0.00 | 63 | 1015.4 |
| 20260902105004 | 75 | 351 | 7.0 | 8.0 | 0.00 | 0.00 | 0.00 | 63 | 1015.4 |
| 20260902103938 | 75 | 351 | 7.0 | 9.0 | 0.00 | 0.00 | 0.00 | 62 | 1015.4 |
| 20260902102915 | 75 | 351 | 7.0 | 10.0 | 0.00 | 0.00 | 0.00 | 61 | 1015.4 |
| 20260902101852 | 75 | 351 | 8.0 | 9.0 | 0.00 | 0.00 | 0.00 | 60 | 1015.4 |
| 20260902101152 | 76 | 351 | 7.0 | 9.0 | 0.00 | 0.00 | 0.00 | 58 | 1015.4 |
| 20260902100829 | 76 | 351 | 7.0 | 9.0 | 0.00 | 0.00 | 0.00 | 58 | 1015.4 |
| 20260902095806 | 76 | 351 | 8.0 | 9.0 | 0.00 | 0.00 | 0.00 | 57 | 1015.4 |
| 20260902094925 | 76 | 351 | 8.0 | 9.0 | 0.00 | 0.00 | 0.00 | 56 | 1015.4 |
| 20260902094743 | 76 | 351 | 8.0 | 9.0 | 0.00 | 0.00 | 0.00 | 56 | 1015.4 |
| 20260902093720 | 76 | 351 | 8.0 | 9.0 | 0.00 | 0.00 | 0.00 | 55 | 1015.4 |
| 20260902092657 | 77 | 351 | 7.0 | 9.0 | 0.00 | 0.00 | 0.00 | 54 | 1015.4 |
| 20260902091634 | 77 | 351 | 7.0 | 10.0 | 0.00 | 0.00 | 0.00 | 53 | 1015.4 |
| 20260902090611 | 77 | 351 | 9.0 | 10.0 | 0.00 | 0.00 | 0.00 | 52 | 1015.4 |
| 20260902085548 | 77 | 351 | 7.0 | 8.0 | 0.00 | 0.00 | 0.00 | 51 | 1015.4 |
| 20260902084433 | 78 | 351 | 6.0 | 7.0 | 0.00 | 0.00 | 0.00 | 51 | 1015.4 |
| 20260902083324 | 78 | 351 | 7.0 | 7.0 | 0.00 | 0.00 | 0.00 | 49 | 1015.4 |
| 20260902082015 | 78 | 351 | 7.0 | 8.0 | 0.00 | 0.00 | 0.00 | 48 | 1015.4 |
| 20260902080952 | 79 | 351 | 6.0 | 7.0 | 0.00 | 0.00 | 0.00 | 49 | 1015.4 |
| 20260902075929 | 79 | 351 | 6.0 | 7.0 | 0.00 | 0.00 | 0.00 | 49 | 1015.4 |
| 20260902073843 | 79 | 351 | 7.0 | 8.0 | 0.00 | 0.00 | 0.00 | 48 | 1015.4 |
| 20260902072819 | 79 | 351 | 7.0 | 9.0 | 0.00 | 0.00 | 0.00 | 48 | 1015.4 |
| 20260902071756 | 79 | 351 | 8.0 | 8.0 | 0.00 | 0.00 | 0.00 | 46 | 1015.4 |
| 20260902070733 | 79 | 351 | 6.0 | 9.0 | 0.00 | 0.00 | 0.00 | 45 | 1015.4 |
| 20260902065710 | 80 | 351 | 7.0 | 9.0 | 0.00 | 0.00 | 0.00 | 43 | 1015.4 |
| 20260902064647 | 80 | 351 | 8.0 | 9.0 | 0.00 | 0.00 | 0.00 | 42 | 1015.4 |
| 20260902063624 | 80 | 351 | 8.0 | 9.0 | 0.00 | 0.00 | 0.00 | 40 | 1015.4 |
| 20260902062559 | 81 | 351 | 7.0 | 11.0 | 0.00 | 0.00 | 0.00 | 40 | 1015.4 |
| 20260902061536 | 81 | 351 | 10.0 | 12.0 | 0.00 | 0.00 | 0.00 | 39 | 1015.4 |
| 20260902060513 | 81 | 351 | 7.0 | 8.0 | 0.00 | 0.00 | 0.00 | 35 | 1014.4 |
| 20260902055417 | 82 | 351 | 7.0 | 9.0 | 0.00 | 0.00 | 0.00 | 35 | 1014.4 |
| 20260902054354 | 82 | 351 | 7.0 | 8.0 | 0.00 | 0.00 | 0.00 | 34 | 1014.4 |
| 20260902053330 | 83 | 351 | 7.0 | 8.0 | 0.00 | 0.00 | 0.00 | 33 | 1014.4 |
| 20260902052307 | 83 | 351 | 8.0 | 8.0 | 0.00 | 0.00 | 0.00 | 32 | 1014.4 |
| 20260902051244 | 84 | 351 | 8.0 | 10.0 | 0.00 | 0.00 | 0.00 | 31 | 1014.4 |
| 20260902050221 | 84 | 351 | 8.0 | 12.0 | 0.00 | 0.00 | 0.00 | 31 | 1014.4 |
| 20260902045157 | 85 | 351 | 11.0 | 15.0 | 0.00 | 0.00 | 0.00 | 30 | 1014.4 |
| 20260902044135 | 85 | 351 | 8.0 | 10.0 | 0.00 | 0.00 | 0.00 | 30 | 1014.4 |
| 20260902043111 | 85 | 351 | 9.0 | 10.0 | 0.00 | 0.00 | 0.00 | 29 | 1014.4 |
| 20260902042048 | 85 | 351 | 8.0 | 10.0 | 0.00 | 0.00 | 0.00 | 29 | 1014.4 |
| 20260902041025 | 86 | 351 | 8.0 | 10.0 | 0.00 | 0.00 | 0.00 | 29 | 1013.4 |
| 20260902040002 | 86 | 351 | 8.0 | 10.0 | 0.00 | 0.00 | 0.00 | 29 | 1013.4 |
| 20260902034938 | 86 | 351 | 9.0 | 9.0 | 0.00 | 0.00 | 0.00 | 28 | 1013.4 |
| 20260902033915 | 87 | 351 | 8.0 | 10.0 | 0.00 | 0.00 | 0.00 | 28 | 1013.4 |
| 20260902032851 | 87 | 351 | 7.0 | 9.0 | 0.00 | 0.00 | 0.00 | 28 | 1013.4 |
| 20260902031828 | 87 | 351 | 7.0 | 8.0 | 0.00 | 0.00 | 0.00 | 28 | 1013.4 |
| 20260902030805 | 87 | 351 | 8.0 | 8.0 | 0.00 | 0.00 | 0.00 | 28 | 1013.4 |
| 20260902025741 | 87 | 351 | 7.0 | 7.0 | 0.00 | 0.00 | 0.00 | 28 | 1013.4 |
| 20260902024718 | 87 | 351 | 7.0 | 8.0 | 0.00 | 0.00 | 0.00 | 28 | 1013.4 |
| 20260902023655 | 88 | 351 | 8.0 | 8.0 | 0.00 | 0.00 | 0.00 | 28 | 1012.4 |
| 20260902022631 | 88 | 351 | 7.0 | 9.0 | 0.00 | 0.00 | 0.00 | 28 | 1012.4 |
| 20260902021608 | 88 | 351 | 8.0 | 9.0 | 0.00 | 0.00 | 0.00 | 27 | 1012.4 |
| 20260902020544 | 89 | 351 | 8.0 | 9.0 | 0.00 | 0.00 | 0.00 | 27 | 1012.4 |
| 20260902015521 | 89 | 351 | 8.0 | 9.0 | 0.00 | 0.00 | 0.00 | 26 | 1011.4 |
| 20260902014457 | 90 | 351 | 8.0 | 9.0 | 0.00 | 0.00 | 0.00 | 25 | 1011.4 |
| 20260902013434 | 91 | 351 | 8.0 | 9.0 | 0.00 | 0.00 | 0.00 | 24 | 1011.4 |
| 20260902012410 | 92 | 351 | 7.0 | 8.0 | 0.00 | 0.00 | 0.00 | 23 | 1011.4 |
| 20260902011347 | 93 | 351 | 8.0 | 8.0 | 0.00 | 0.00 | 0.00 | 22 | 1011.4 |
| 20260902010323 | 93 | 351 | 7.0 | 10.0 | 0.00 | 0.00 | 0.00 | 21 | 1011.4 |
| 20260902005259 | 94 | 351 | 7.0 | 8.0 | 0.00 | 0.00 | 0.00 | 20 | 1011.4 |
| 20260902004236 | 95 | 351 | 7.0 | 9.0 | 0.00 | 0.00 | 0.00 | 20 | 1011.4 |
| 20260902003212 | 95 | 351 | 6.0 | 10.0 | 0.00 | 0.00 | 0.00 | 20 | 1011.4 |
| 20260902002148 | 96 | 351 | 7.0 | 11.0 | 0.00 | 0.00 | 0.00 | 19 | 1011.4 |
| 20260902001121 | 97 | 351 | 7.0 | 9.0 | 0.00 | 0.00 | 0.00 | 19 | 1010.4 |
| 20260902000058 | 97 | 351 | 8.0 | 10.0 | 0.00 | 0.00 | 0.00 | 18 | 1010.4 |
| 20260901235034 | 97 | 351 | 7.0 | 10.0 | 0.00 | 0.00 | 0.00 | 18 | 1011.4 |
| 20260901234010 | 98 | 351 | 7.0 | 10.0 | 0.00 | 0.00 | 0.00 | 18 | 1010.4 |
| 20260901232946 | 98 | 351 | 7.0 | 10.0 | 0.00 | 0.00 | 0.00 | 18 | 1010.4 |
| 20260901231922 | 99 | 351 | 9.0 | 10.0 | 0.00 | 0.00 | 0.00 | 18 | 1010.4 |
| 20260901230859 | 99 | 351 | 9.0 | 10.0 | 0.00 | 0.00 | 0.00 | 18 | 1010.4 |
| 20260901225835 | 99 | 351 | 7.0 | 10.0 | 0.00 | 0.00 | 0.00 | 18 | 1010.4 |
| 20260901224811 | 99 | 351 | 7.0 | 12.0 | 0.00 | 0.00 | 0.00 | 17 | 1010.4 |
| 20260901223747 | 100 | 351 | 11.0 | 12.0 | 0.00 | 0.00 | 0.00 | 17 | 1010.4 |
| 20260901222723 | 100 | 351 | 9.0 | 18.0 | 0.00 | 0.00 | 0.00 | 17 | 1010.4 |